Year,Month,Day,Hour,Minute,Value (Times are PST for temperature in C)
2014,01,14,00,00,9.10
2014,01,14,00,02,9.10
2014,01,14,00,04,9.00
2014,01,14,00,05,8.90
2014,01,14,00,06,8.90
2014,01,14,00,07,8.90
2014,01,14,00,08,8.80
2014,01,14,00,09,8.80
2014,01,14,00,10,8.80
2014,01,14,00,11,8.80
2014,01,14,00,12,8.80
2014,01,14,00,13,8.80
2014,01,14,00,14,8.70
2014,01,14,00,15,8.70
2014,01,14,00,16,8.70
2014,01,14,00,18,8.60
2014,01,14,00,19,8.60
2014,01,14,00,21,8.60
2014,01,14,00,22,8.60
2014,01,14,00,23,8.60
2014,01,14,00,24,8.60
2014,01,14,00,25,8.60
2014,01,14,00,27,8.30
2014,01,14,00,29,8.30
2014,01,14,00,31,8.30
2014,01,14,00,33,8.30
2014,01,14,00,34,8.30
2014,01,14,00,36,8.30
2014,01,14,00,38,8.40
2014,01,14,00,39,8.40
2014,01,14,00,40,8.50
2014,01,14,00,42,8.60
2014,01,14,00,43,8.60
2014,01,14,00,44,8.60
2014,01,14,00,45,8.60
2014,01,14,00,46,8.70
2014,01,14,00,47,8.70
2014,01,14,00,48,8.70
2014,01,14,00,49,8.70
2014,01,14,00,50,8.60
2014,01,14,00,51,8.60
2014,01,14,00,53,8.60
2014,01,14,00,54,8.60
2014,01,14,00,55,8.70
2014,01,14,00,56,8.70
2014,01,14,00,57,8.70
2014,01,14,00,59,8.60
2014,01,14,01,00,8.60
2014,01,14,01,02,8.60
2014,01,14,01,03,8.50
2014,01,14,01,04,8.50
2014,01,14,01,05,8.50
2014,01,14,01,06,8.40
2014,01,14,01,07,8.40
2014,01,14,01,08,8.40
2014,01,14,01,09,8.40
2014,01,14,01,10,8.30
2014,01,14,01,11,8.30
2014,01,14,01,12,8.30
2014,01,14,01,13,8.30
2014,01,14,01,14,8.30
2014,01,14,01,15,8.30
2014,01,14,01,16,8.20
2014,01,14,01,17,8.20
2014,01,14,01,18,8.20
2014,01,14,01,19,8.20
2014,01,14,01,20,8.20
2014,01,14,01,21,8.20
2014,01,14,01,22,8.20
2014,01,14,01,23,8.20
2014,01,14,01,24,8.20
2014,01,14,01,25,8.20
2014,01,14,01,26,8.20
2014,01,14,01,27,8.20
2014,01,14,01,29,8.20
2014,01,14,01,30,8.20
2014,01,14,01,31,8.20
2014,01,14,01,32,8.20
2014,01,14,01,33,8.20
2014,01,14,01,34,8.10
2014,01,14,01,35,8.10
2014,01,14,01,36,8.10
2014,01,14,01,37,8.10
2014,01,14,01,38,8.10
2014,01,14,01,39,8.00
2014,01,14,01,41,7.90
2014,01,14,01,42,7.90
2014,01,14,01,44,7.90
2014,01,14,01,45,7.90
2014,01,14,01,46,7.90
2014,01,14,01,48,7.80
2014,01,14,01,49,7.80
2014,01,14,01,50,7.80
2014,01,14,01,51,7.80
2014,01,14,01,52,7.80
2014,01,14,01,53,7.80
2014,01,14,01,54,7.80
2014,01,14,01,55,7.70
2014,01,14,01,56,7.70
2014,01,14,01,57,7.70
2014,01,14,01,59,7.60
2014,01,14,02,00,7.60
2014,01,14,02,01,7.60
2014,01,14,02,02,7.60
2014,01,14,02,03,7.60
2014,01,14,02,05,7.60
2014,01,14,02,06,7.60
2014,01,14,02,07,7.60
2014,01,14,02,08,7.60
2014,01,14,02,09,7.60
2014,01,14,02,10,7.60
2014,01,14,02,11,7.60
2014,01,14,02,12,7.60
2014,01,14,02,13,7.50
2014,01,14,02,14,7.50
2014,01,14,02,15,7.50
2014,01,14,02,16,7.60
2014,01,14,02,17,7.60
2014,01,14,02,19,7.50
2014,01,14,02,20,7.50
2014,01,14,02,21,7.50
2014,01,14,02,22,7.40
2014,01,14,02,23,7.40
2014,01,14,02,24,7.40
2014,01,14,02,25,7.40
2014,01,14,02,26,7.30
2014,01,14,02,27,7.30
2014,01,14,02,28,7.30
2014,01,14,02,29,7.20
2014,01,14,02,31,7.10
2014,01,14,02,32,7.10
2014,01,14,02,33,7.10
2014,01,14,02,34,7.00
2014,01,14,02,35,7.00
2014,01,14,02,36,6.90
2014,01,14,02,37,6.90
2014,01,14,02,38,6.90
2014,01,14,02,39,6.90
2014,01,14,02,40,6.90
2014,01,14,02,41,6.90
2014,01,14,02,42,6.80
2014,01,14,02,44,6.90
2014,01,14,02,45,6.80
2014,01,14,02,46,6.80
2014,01,14,02,47,6.80
2014,01,14,02,48,6.80
2014,01,14,02,49,6.80
2014,01,14,02,50,6.80
2014,01,14,02,51,6.80
2014,01,14,02,52,6.80
2014,01,14,02,53,6.80
2014,01,14,02,54,6.80
2014,01,14,02,55,6.80
2014,01,14,02,56,6.70
2014,01,14,02,57,6.80
2014,01,14,02,59,6.70
2014,01,14,03,00,6.70
2014,01,14,03,01,6.70
2014,01,14,03,02,6.70
2014,01,14,03,04,6.70
2014,01,14,03,05,6.70
2014,01,14,03,06,6.70
2014,01,14,03,07,6.70
2014,01,14,03,08,6.70
2014,01,14,03,09,6.70
2014,01,14,03,10,6.70
2014,01,14,03,11,6.80
2014,01,14,03,12,6.80
2014,01,14,03,13,6.80
2014,01,14,03,14,6.80
2014,01,14,03,15,6.80
2014,01,14,03,16,6.80
2014,01,14,03,17,6.80
2014,01,14,03,18,6.80
2014,01,14,03,20,6.80
2014,01,14,03,21,6.80
2014,01,14,03,22,6.80
2014,01,14,03,23,6.80
2014,01,14,03,25,6.80
2014,01,14,03,26,6.80
2014,01,14,03,27,6.80
2014,01,14,03,28,6.80
2014,01,14,03,29,6.80
2014,01,14,03,30,6.80
2014,01,14,03,31,6.70
2014,01,14,03,32,6.70
2014,01,14,03,33,6.70
2014,01,14,03,35,6.70
2014,01,14,03,36,6.70
2014,01,14,03,37,6.80
2014,01,14,03,38,6.80
2014,01,14,03,39,6.80
2014,01,14,03,40,6.80
2014,01,14,03,41,6.80
2014,01,14,03,42,6.80
2014,01,14,03,43,6.80
2014,01,14,03,44,6.80
2014,01,14,03,45,6.80
2014,01,14,03,46,6.80
2014,01,14,03,47,6.80
2014,01,14,03,48,6.80
2014,01,14,03,49,6.80
2014,01,14,03,50,6.80
2014,01,14,03,51,6.80
2014,01,14,03,52,6.80
2014,01,14,03,53,6.80
2014,01,14,03,54,6.80
2014,01,14,03,55,6.80
2014,01,14,03,56,6.80
2014,01,14,03,57,6.80
2014,01,14,03,59,6.80
2014,01,14,04,00,6.80
2014,01,14,04,01,6.80
2014,01,14,04,03,6.80
2014,01,14,04,04,6.80
2014,01,14,04,05,6.80
2014,01,14,04,06,6.80
2014,01,14,04,07,6.80
2014,01,14,04,08,6.90
2014,01,14,04,09,6.90
2014,01,14,04,10,6.90
2014,01,14,04,11,6.90
2014,01,14,04,12,6.90
2014,01,14,04,14,6.90
2014,01,14,04,15,6.90
2014,01,14,04,16,6.90
2014,01,14,04,17,6.90
2014,01,14,04,18,6.90
2014,01,14,04,19,6.90
2014,01,14,04,20,6.90
2014,01,14,04,21,6.90
2014,01,14,04,22,6.90
2014,01,14,04,23,6.90
2014,01,14,04,24,6.90
2014,01,14,04,25,6.90
2014,01,14,04,26,6.90
2014,01,14,04,27,6.90
2014,01,14,04,29,6.90
2014,01,14,04,30,6.80
2014,01,14,04,31,6.80
2014,01,14,04,32,6.80
2014,01,14,04,33,6.80
2014,01,14,04,34,6.80
2014,01,14,04,35,6.80
2014,01,14,04,36,6.80
2014,01,14,04,37,6.80
2014,01,14,04,38,6.80
2014,01,14,04,39,6.80
2014,01,14,04,40,6.80
2014,01,14,04,41,6.80
2014,01,14,04,42,6.80
2014,01,14,04,43,6.80
2014,01,14,04,44,6.70
2014,01,14,04,45,6.80
2014,01,14,04,46,6.70
2014,01,14,04,47,6.70
2014,01,14,04,48,6.70
2014,01,14,04,49,6.70
2014,01,14,04,50,6.70
2014,01,14,04,51,6.70
2014,01,14,04,52,6.70
2014,01,14,04,53,6.70
2014,01,14,04,54,6.70
2014,01,14,04,55,6.70
2014,01,14,04,56,6.70
2014,01,14,04,57,6.70
2014,01,14,04,58,6.70
2014,01,14,04,59,6.70
2014,01,14,05,00,6.70
2014,01,14,05,01,6.70
2014,01,14,05,02,6.70
2014,01,14,05,04,6.70
2014,01,14,05,05,6.70
2014,01,14,05,06,6.70
2014,01,14,05,07,6.70
2014,01,14,05,08,6.70
2014,01,14,05,09,6.70
2014,01,14,05,10,6.70
2014,01,14,05,11,6.70
2014,01,14,05,12,6.70
2014,01,14,05,13,6.70
2014,01,14,05,14,6.70
2014,01,14,05,15,6.70
2014,01,14,05,17,6.70
2014,01,14,05,18,6.70
2014,01,14,05,19,6.70
2014,01,14,05,20,6.60
2014,01,14,05,21,6.70
2014,01,14,05,22,6.70
2014,01,14,05,23,6.60
2014,01,14,05,24,6.70
2014,01,14,05,25,6.70
2014,01,14,05,26,6.70
2014,01,14,05,27,6.70
2014,01,14,05,28,6.70
2014,01,14,05,29,6.70
2014,01,14,05,30,6.70
2014,01,14,05,31,6.70
2014,01,14,05,32,6.70
2014,01,14,05,33,6.70
2014,01,14,05,34,6.70
2014,01,14,05,35,6.70
2014,01,14,05,36,6.70
2014,01,14,05,37,6.70
2014,01,14,05,38,6.60
2014,01,14,05,39,6.70
2014,01,14,05,40,6.60
2014,01,14,05,41,6.60
2014,01,14,05,42,6.60
2014,01,14,05,43,6.60
2014,01,14,05,44,6.60
2014,01,14,05,45,6.60
2014,01,14,05,46,6.60
2014,01,14,05,47,6.60
2014,01,14,05,48,6.60
2014,01,14,05,49,6.60
2014,01,14,05,50,6.60
2014,01,14,05,51,6.60
2014,01,14,05,52,6.60
2014,01,14,05,53,6.60
2014,01,14,05,54,6.60
2014,01,14,05,55,6.60
2014,01,14,05,56,6.60
2014,01,14,05,57,6.60
2014,01,14,05,58,6.60
2014,01,14,05,59,6.60
2014,01,14,06,00,6.50
2014,01,14,06,01,6.50
2014,01,14,06,02,6.50
2014,01,14,06,04,6.50
2014,01,14,06,05,6.50
2014,01,14,06,06,6.50
2014,01,14,06,07,6.40
2014,01,14,06,08,6.40
2014,01,14,06,09,6.40
2014,01,14,06,10,6.40
2014,01,14,06,11,6.40
2014,01,14,06,12,6.40
2014,01,14,06,13,6.40
2014,01,14,06,14,6.40
2014,01,14,06,15,6.40
2014,01,14,06,16,6.40
2014,01,14,06,17,6.30
2014,01,14,06,18,6.30
2014,01,14,06,19,6.30
2014,01,14,06,20,6.30
2014,01,14,06,21,6.30
2014,01,14,06,22,6.30
2014,01,14,06,23,6.30
2014,01,14,06,24,6.30
2014,01,14,06,25,6.20
2014,01,14,06,26,6.20
2014,01,14,06,27,6.20
2014,01,14,06,28,6.20
2014,01,14,06,29,6.20
2014,01,14,06,30,6.20
2014,01,14,06,31,6.20
2014,01,14,06,32,6.10
2014,01,14,06,33,6.10
2014,01,14,06,34,6.10
2014,01,14,06,35,6.10
2014,01,14,06,36,6.10
2014,01,14,06,37,6.00
2014,01,14,06,38,6.00
2014,01,14,06,39,6.00
2014,01,14,06,40,6.00
2014,01,14,06,41,6.00
2014,01,14,06,42,6.00
2014,01,14,06,43,6.00
2014,01,14,06,44,6.00
2014,01,14,06,45,5.90
2014,01,14,06,46,6.00
2014,01,14,06,47,5.90
2014,01,14,06,48,5.90
2014,01,14,06,49,5.90
2014,01,14,06,50,5.90
2014,01,14,06,51,5.90
2014,01,14,06,52,5.90
2014,01,14,06,53,5.90
2014,01,14,06,54,5.90
2014,01,14,06,56,5.90
2014,01,14,06,57,5.90
2014,01,14,06,58,5.90
2014,01,14,07,00,5.90
2014,01,14,07,01,5.90
2014,01,14,07,02,5.80
2014,01,14,07,04,5.80
2014,01,14,07,05,5.80
2014,01,14,07,06,5.80
2014,01,14,07,07,5.90
2014,01,14,07,08,5.80
2014,01,14,07,09,5.90
2014,01,14,07,10,5.90
2014,01,14,07,11,5.90
2014,01,14,07,12,5.90
2014,01,14,07,13,5.90
2014,01,14,07,14,5.90
2014,01,14,07,15,5.80
2014,01,14,07,16,5.80
2014,01,14,07,17,5.80
2014,01,14,07,18,5.80
2014,01,14,07,19,5.80
2014,01,14,07,20,5.80
2014,01,14,07,21,5.80
2014,01,14,07,22,5.80
2014,01,14,07,24,5.80
2014,01,14,07,25,5.90
2014,01,14,07,26,5.90
2014,01,14,07,27,5.90
2014,01,14,07,28,5.90
2014,01,14,07,29,5.90
2014,01,14,07,30,5.90
2014,01,14,07,31,5.90
2014,01,14,07,32,5.90
2014,01,14,07,33,5.90
2014,01,14,07,34,5.90
2014,01,14,07,35,5.90
2014,01,14,07,36,5.90
2014,01,14,07,37,5.90
2014,01,14,07,38,5.90
2014,01,14,07,39,5.90
2014,01,14,07,40,5.90
2014,01,14,07,41,5.90
2014,01,14,07,42,5.90
2014,01,14,07,43,5.90
2014,01,14,07,44,5.90
2014,01,14,07,45,5.90
2014,01,14,07,46,5.80
2014,01,14,07,47,5.80
2014,01,14,07,48,5.80
2014,01,14,07,49,5.80
2014,01,14,07,50,5.80
2014,01,14,07,51,5.80
2014,01,14,07,52,5.80
2014,01,14,07,53,5.80
2014,01,14,07,54,5.80
2014,01,14,07,55,5.80
2014,01,14,07,56,5.80
2014,01,14,07,57,5.80
2014,01,14,07,58,5.80
2014,01,14,07,59,5.80
2014,01,14,08,01,5.80
2014,01,14,08,03,5.80
2014,01,14,08,05,5.80
2014,01,14,08,06,5.80
2014,01,14,08,07,5.80
2014,01,14,08,08,5.80
2014,01,14,08,09,5.80
2014,01,14,08,10,5.80
2014,01,14,08,12,5.80
2014,01,14,08,13,5.80
2014,01,14,08,14,5.80
2014,01,14,08,15,5.80
2014,01,14,08,16,5.80
2014,01,14,08,17,5.80
2014,01,14,08,19,5.80
2014,01,14,08,20,5.80
2014,01,14,08,21,5.80
2014,01,14,08,22,5.80
2014,01,14,08,23,5.80
2014,01,14,08,24,5.80
2014,01,14,08,25,5.80
2014,01,14,08,26,5.80
2014,01,14,08,27,5.80
2014,01,14,08,28,5.80
2014,01,14,08,29,5.80
2014,01,14,08,31,5.80
2014,01,14,08,32,5.80
2014,01,14,08,33,5.90
2014,01,14,08,34,5.90
2014,01,14,08,36,5.90
2014,01,14,08,37,5.90
2014,01,14,08,38,5.90
2014,01,14,08,39,5.90
2014,01,14,08,40,5.90
2014,01,14,08,41,5.90
2014,01,14,08,43,5.90
2014,01,14,08,45,5.90
2014,01,14,08,47,5.90
2014,01,14,08,48,5.90
2014,01,14,08,49,5.90
2014,01,14,08,50,5.90
2014,01,14,08,51,5.90
2014,01,14,08,52,5.90
2014,01,14,08,53,5.90
2014,01,14,08,54,5.90
2014,01,14,08,55,5.90
2014,01,14,08,56,6.00
2014,01,14,08,57,6.00
2014,01,14,08,58,6.00
2014,01,14,08,59,6.00
2014,01,14,09,00,6.00
2014,01,14,09,01,6.00
2014,01,14,09,02,6.00
2014,01,14,09,04,6.00
2014,01,14,09,05,6.00
2014,01,14,09,06,6.00
2014,01,14,09,07,6.00
2014,01,14,09,08,6.00
2014,01,14,09,09,6.10
2014,01,14,09,10,6.10
2014,01,14,09,11,6.10
2014,01,14,09,12,6.10
2014,01,14,09,13,6.10
2014,01,14,09,14,6.10
2014,01,14,09,15,6.10
2014,01,14,09,16,6.10
2014,01,14,09,17,6.10
2014,01,14,09,18,6.10
2014,01,14,09,19,6.10
2014,01,14,09,20,6.10
2014,01,14,09,21,6.10
2014,01,14,09,22,6.10
2014,01,14,09,23,6.10
2014,01,14,09,24,6.10
2014,01,14,09,25,6.10
2014,01,14,09,26,6.10
2014,01,14,09,27,6.10
2014,01,14,09,28,6.10
2014,01,14,09,29,6.10
2014,01,14,09,30,6.10
2014,01,14,09,31,6.10
2014,01,14,09,32,6.10
2014,01,14,09,33,6.10
2014,01,14,09,34,6.10
2014,01,14,09,35,6.10
2014,01,14,09,36,6.10
2014,01,14,09,37,6.10
2014,01,14,09,38,6.10
2014,01,14,09,39,6.10
2014,01,14,09,40,6.10
2014,01,14,09,42,6.10
2014,01,14,09,43,6.10
2014,01,14,11,43,7.60
2014,01,14,11,44,7.60
2014,01,14,11,45,7.50
2014,01,14,11,46,7.40
2014,01,14,11,47,7.40
2014,01,14,11,48,7.40
2014,01,14,11,49,7.40
2014,01,14,11,50,7.40
2014,01,14,11,51,7.40
2014,01,14,11,52,7.40
2014,01,14,11,53,7.40
2014,01,14,11,54,7.40
2014,01,14,11,55,7.40
2014,01,14,11,56,7.40
2014,01,14,11,57,7.40
2014,01,14,11,58,7.40
2014,01,14,11,59,7.40
2014,01,14,12,00,7.40
2014,01,14,12,01,7.40
2014,01,14,12,03,7.40
2014,01,14,12,04,7.40
2014,01,14,12,05,7.40
2014,01,14,12,06,7.50
2014,01,14,12,07,7.50
2014,01,14,12,08,7.50
2014,01,14,12,09,7.60
2014,01,14,12,10,7.60
2014,01,14,12,11,7.60
2014,01,14,12,13,7.70
2014,01,14,12,14,7.70
2014,01,14,12,15,7.70
2014,01,14,12,16,7.70
2014,01,14,12,17,7.70
2014,01,14,12,18,7.80
2014,01,14,12,19,7.80
2014,01,14,12,20,7.80
2014,01,14,12,21,7.80
2014,01,14,12,22,7.80
2014,01,14,12,23,7.80
2014,01,14,12,24,7.80
2014,01,14,12,26,7.90
2014,01,14,12,27,7.90
2014,01,14,12,28,7.90
2014,01,14,12,29,7.90
2014,01,14,12,30,7.90
2014,01,14,12,31,7.90
2014,01,14,12,32,7.90
2014,01,14,12,33,7.90
2014,01,14,12,34,7.90
2014,01,14,12,35,7.90
2014,01,14,12,36,7.90
2014,01,14,12,37,7.90
2014,01,14,12,38,7.90
2014,01,14,12,39,7.90
2014,01,14,12,40,7.90
2014,01,14,12,41,7.90
2014,01,14,12,42,7.90
2014,01,14,12,43,7.90
2014,01,14,12,44,7.90
2014,01,14,12,45,7.90
2014,01,14,12,46,7.90
2014,01,14,12,48,7.90
2014,01,14,12,50,7.90
2014,01,14,12,52,7.90
2014,01,14,12,53,8.00
2014,01,14,12,54,8.00
2014,01,14,12,55,8.00
2014,01,14,12,56,8.00
2014,01,14,12,57,8.10
2014,01,14,12,58,8.10
2014,01,14,12,59,8.10
2014,01,14,13,00,8.10
2014,01,14,13,01,8.10
2014,01,14,13,02,8.10
2014,01,14,13,04,8.10
2014,01,14,13,05,8.20
2014,01,14,13,06,8.20
2014,01,14,13,07,8.20
2014,01,14,13,08,8.20
2014,01,14,13,09,8.20
2014,01,14,13,10,8.20
2014,01,14,13,11,8.20
2014,01,14,13,13,8.20
2014,01,14,13,14,8.20
2014,01,14,13,15,8.20
2014,01,14,13,16,8.20
2014,01,14,13,17,8.20
2014,01,14,13,18,8.20
2014,01,14,13,19,8.20
2014,01,14,13,20,8.20
2014,01,14,13,21,8.20
2014,01,14,13,22,8.20
2014,01,14,13,23,8.20
2014,01,14,13,24,8.20
2014,01,14,13,25,8.20
2014,01,14,13,26,8.20
2014,01,14,13,27,8.10
2014,01,14,13,28,8.10
2014,01,14,13,29,8.10
2014,01,14,13,30,8.10
2014,01,14,13,31,8.10
2014,01,14,13,32,8.10
2014,01,14,13,33,8.10
2014,01,14,13,34,8.10
2014,01,14,13,35,8.10
2014,01,14,13,36,8.10
2014,01,14,13,37,8.10
2014,01,14,13,38,8.10
2014,01,14,13,39,8.10
2014,01,14,13,40,8.10
2014,01,14,13,41,8.10
2014,01,14,13,42,8.10
2014,01,14,13,43,8.10
2014,01,14,13,44,8.10
2014,01,14,13,45,8.10
2014,01,14,13,46,8.10
2014,01,14,13,47,8.10
2014,01,14,13,48,8.10
2014,01,14,13,49,8.20
2014,01,14,13,50,8.20
2014,01,14,13,51,8.20
2014,01,14,13,52,8.20
2014,01,14,13,54,8.20
2014,01,14,13,55,8.30
2014,01,14,13,56,8.30
2014,01,14,13,58,8.30
2014,01,14,13,59,8.30
2014,01,14,14,00,8.30
2014,01,14,14,01,8.30
2014,01,14,14,02,8.30
2014,01,14,14,03,8.30
2014,01,14,14,05,8.30
2014,01,14,14,06,8.30
2014,01,14,14,07,8.30
2014,01,14,14,08,8.30
2014,01,14,14,09,8.30
2014,01,14,14,10,8.30
2014,01,14,14,11,8.30
2014,01,14,14,12,8.30
2014,01,14,14,14,8.30
2014,01,14,14,15,8.30
2014,01,14,14,16,8.30
2014,01,14,14,17,8.30
2014,01,14,14,18,8.30
2014,01,14,14,19,8.30
2014,01,14,14,20,8.30
2014,01,14,14,21,8.30
2014,01,14,14,22,8.30
2014,01,14,14,23,8.30
2014,01,14,14,24,8.30
2014,01,14,14,25,8.30
2014,01,14,14,26,8.30
2014,01,14,14,27,8.30
2014,01,14,14,28,8.30
2014,01,14,14,29,8.30
2014,01,14,14,30,8.30
2014,01,14,14,31,8.30
2014,01,14,14,32,8.30
2014,01,14,14,33,8.30
2014,01,14,14,35,8.30
2014,01,14,14,36,8.30
2014,01,14,14,37,8.30
2014,01,14,14,39,8.30
2014,01,14,14,40,8.30
2014,01,14,14,41,8.30
2014,01,14,14,42,8.30
2014,01,14,14,43,8.30
2014,01,14,14,44,8.30
2014,01,14,14,45,8.40
2014,01,14,14,46,8.40
2014,01,14,14,48,8.40
2014,01,14,14,49,8.40
2014,01,14,14,51,8.40
2014,01,14,14,52,8.40
2014,01,14,14,53,8.40
2014,01,14,14,54,8.40
2014,01,14,14,56,8.40
2014,01,14,14,58,8.40
2014,01,14,14,59,8.40
2014,01,14,15,00,8.40
2014,01,14,15,01,8.40
2014,01,14,15,03,8.40
2014,01,14,15,05,8.40
2014,01,14,15,06,8.40
2014,01,14,15,07,8.40
2014,01,14,15,08,8.40
2014,01,14,15,09,8.40
2014,01,14,15,10,8.40
2014,01,14,15,11,8.40
2014,01,14,15,12,8.40
2014,01,14,15,14,8.40
2014,01,14,15,15,8.40
2014,01,14,15,16,8.40
2014,01,14,15,17,8.40
2014,01,14,15,18,8.40
2014,01,14,15,19,8.40
2014,01,14,15,20,8.40
2014,01,14,15,21,8.40
2014,01,14,15,22,8.40
2014,01,14,15,23,8.40
2014,01,14,15,24,8.40
2014,01,14,15,25,8.40
2014,01,14,15,26,8.40
2014,01,14,15,27,8.40
2014,01,14,15,28,8.40
2014,01,14,15,29,8.40
2014,01,14,15,30,8.40
2014,01,14,15,31,8.40
2014,01,14,15,32,8.40
2014,01,14,15,33,8.40
2014,01,14,15,34,8.40
2014,01,14,15,35,8.40
2014,01,14,15,36,8.40
2014,01,14,15,37,8.40
2014,01,14,15,38,8.40
2014,01,14,15,39,8.40
2014,01,14,15,41,8.40
2014,01,14,15,42,8.40
2014,01,14,15,44,8.40
2014,01,14,15,45,8.40
2014,01,14,15,47,8.40
2014,01,14,15,48,8.40
2014,01,14,15,49,8.40
2014,01,14,15,50,8.30
2014,01,14,15,51,8.30
2014,01,14,15,52,8.30
2014,01,14,15,53,8.30
2014,01,14,15,54,8.30
2014,01,14,15,55,8.30
2014,01,14,15,56,8.30
2014,01,14,15,57,8.30
2014,01,14,15,58,8.30
2014,01,14,15,59,8.30
2014,01,14,16,00,8.30
2014,01,14,16,01,8.30
2014,01,14,16,02,8.30
2014,01,14,16,03,8.30
2014,01,14,16,05,8.30
2014,01,14,16,06,8.30
2014,01,14,16,07,8.30
2014,01,14,16,08,8.30
2014,01,14,16,09,8.30
2014,01,14,16,10,8.30
2014,01,14,16,11,8.30
2014,01,14,16,12,8.30
2014,01,14,16,13,8.30
2014,01,14,16,14,8.30
2014,01,14,16,15,8.30
2014,01,14,16,16,8.30
2014,01,14,16,17,8.30
2014,01,14,16,18,8.30
2014,01,14,16,19,8.30
2014,01,14,16,20,8.30
2014,01,14,16,21,8.30
2014,01,14,16,22,8.30
2014,01,14,16,23,8.30
2014,01,14,16,24,8.30
2014,01,14,16,26,8.20
2014,01,14,16,27,8.30
2014,01,14,16,28,8.30
2014,01,14,16,29,8.20
2014,01,14,16,30,8.20
2014,01,14,16,31,8.20
2014,01,14,16,32,8.20
2014,01,14,16,33,8.20
2014,01,14,16,34,8.20
2014,01,14,16,35,8.20
2014,01,14,16,36,8.20
2014,01,14,16,37,8.20
2014,01,14,16,38,8.20
2014,01,14,16,39,8.20
2014,01,14,16,40,8.20
2014,01,14,16,41,8.20
2014,01,14,16,42,8.20
2014,01,14,16,43,8.20
2014,01,14,16,44,8.20
2014,01,14,16,45,8.20
2014,01,14,16,46,8.20
2014,01,14,16,47,8.20
2014,01,14,16,48,8.10
2014,01,14,16,49,8.10
2014,01,14,16,50,8.10
2014,01,14,16,51,8.10
2014,01,14,16,52,8.10
2014,01,14,16,54,8.10
2014,01,14,16,55,8.10
2014,01,14,16,56,8.10
2014,01,14,16,57,8.10
2014,01,14,16,58,8.10
2014,01,14,16,59,8.00
2014,01,14,17,00,8.10
2014,01,14,17,01,8.00
2014,01,14,17,02,8.00
2014,01,14,17,04,8.00
2014,01,14,17,05,8.00
2014,01,14,17,06,8.00
2014,01,14,17,07,8.00
2014,01,14,17,08,8.00
2014,01,14,17,09,8.00
2014,01,14,17,10,8.00
2014,01,14,17,12,8.00
2014,01,14,17,14,7.90
2014,01,14,17,15,8.00
2014,01,14,17,16,7.90
2014,01,14,17,17,7.90
2014,01,14,17,18,7.90
2014,01,14,17,19,7.90
2014,01,14,17,20,7.90
2014,01,14,17,21,7.90
2014,01,14,17,23,7.90
2014,01,14,17,24,7.90
2014,01,14,17,25,7.90
2014,01,14,17,26,7.90
2014,01,14,17,27,7.90
2014,01,14,17,29,7.90
2014,01,14,17,30,7.90
2014,01,14,17,31,7.90
2014,01,14,17,32,7.90
2014,01,14,17,33,7.90
2014,01,14,17,34,7.90
2014,01,14,17,35,7.90
2014,01,14,17,36,7.90
2014,01,14,17,37,7.90
2014,01,14,17,38,7.90
2014,01,14,17,39,7.90
2014,01,14,17,40,7.90
2014,01,14,17,41,7.90
2014,01,14,17,42,7.90
2014,01,14,17,43,7.80
2014,01,14,17,44,7.80
2014,01,14,17,45,7.80
2014,01,14,17,46,7.80
2014,01,14,17,47,7.80
2014,01,14,17,48,7.80
2014,01,14,17,49,7.80
2014,01,14,17,50,7.80
2014,01,14,17,51,7.80
2014,01,14,17,52,7.80
2014,01,14,17,53,7.80
2014,01,14,17,54,7.80
2014,01,14,17,55,7.80
2014,01,14,17,56,7.80
2014,01,14,17,57,7.80
2014,01,14,17,58,7.80
2014,01,14,17,59,7.80
2014,01,14,18,00,7.80
2014,01,14,18,01,7.80
2014,01,14,18,02,7.80
2014,01,14,18,03,7.80
2014,01,14,18,05,7.80
2014,01,14,18,06,7.80
2014,01,14,18,07,7.80
2014,01,14,18,08,7.80
2014,01,14,18,09,7.80
2014,01,14,18,10,7.80
2014,01,14,18,11,7.80
2014,01,14,18,12,7.80
2014,01,14,18,13,7.80
2014,01,14,18,14,7.80
2014,01,14,18,15,7.80
2014,01,14,18,16,7.80
2014,01,14,18,18,7.80
2014,01,14,18,19,7.80
2014,01,14,18,20,7.80
2014,01,14,18,21,7.70
2014,01,14,18,22,7.70
2014,01,14,18,23,7.80
2014,01,14,18,24,7.70
2014,01,14,18,25,7.70
2014,01,14,18,26,7.70
2014,01,14,18,27,7.70
2014,01,14,18,28,7.70
2014,01,14,18,29,7.70
2014,01,14,18,30,7.70
2014,01,14,18,31,7.70
2014,01,14,18,32,7.70
2014,01,14,18,33,7.70
2014,01,14,18,34,7.70
2014,01,14,18,35,7.70
2014,01,14,18,36,7.70
2014,01,14,18,37,7.70
2014,01,14,18,38,7.70
2014,01,14,18,39,7.70
2014,01,14,18,40,7.70
2014,01,14,18,42,7.60
2014,01,14,18,43,7.60
2014,01,14,18,44,7.60
2014,01,14,18,45,7.60
2014,01,14,18,46,7.60
2014,01,14,18,47,7.60
2014,01,14,18,48,7.60
2014,01,14,18,49,7.60
2014,01,14,18,50,7.60
2014,01,14,18,52,7.60
2014,01,14,18,53,7.60
2014,01,14,18,54,7.60
2014,01,14,18,55,7.60
2014,01,14,18,56,7.60
2014,01,14,18,57,7.50
2014,01,14,18,58,7.50
2014,01,14,18,59,7.50
2014,01,14,19,00,7.50
2014,01,14,19,01,7.50
2014,01,14,19,03,7.50
2014,01,14,19,04,7.50
2014,01,14,19,05,7.50
2014,01,14,19,06,7.50
2014,01,14,19,07,7.40
2014,01,14,19,08,7.40
2014,01,14,19,09,7.50
2014,01,14,19,10,7.40
2014,01,14,19,11,7.40
2014,01,14,19,12,7.40
2014,01,14,19,13,7.40
2014,01,14,19,14,7.40
2014,01,14,19,15,7.40
2014,01,14,19,16,7.40
2014,01,14,19,17,7.40
2014,01,14,19,18,7.40
2014,01,14,19,19,7.40
2014,01,14,19,20,7.40
2014,01,14,19,21,7.40
2014,01,14,19,23,7.40
2014,01,14,19,24,7.40
2014,01,14,19,25,7.40
2014,01,14,19,26,7.40
2014,01,14,19,27,7.40
2014,01,14,19,29,7.40
2014,01,14,19,30,7.40
2014,01,14,19,31,7.40
2014,01,14,19,32,7.40
2014,01,14,19,33,7.40
2014,01,14,19,34,7.40
2014,01,14,19,35,7.40
2014,01,14,19,36,7.40
2014,01,14,19,37,7.40
2014,01,14,19,38,7.40
2014,01,14,19,39,7.40
2014,01,14,19,40,7.40
2014,01,14,19,41,7.40
2014,01,14,19,42,7.40
2014,01,14,19,43,7.40
2014,01,14,19,44,7.40
2014,01,14,19,45,7.40
2014,01,14,19,46,7.40
2014,01,14,19,47,7.40
2014,01,14,19,48,7.30
2014,01,14,19,49,7.30
2014,01,14,19,50,7.30
2014,01,14,19,51,7.30
2014,01,14,19,52,7.30
2014,01,14,19,53,7.30
2014,01,14,19,54,7.30
2014,01,14,19,56,7.30
2014,01,14,19,57,7.30
2014,01,14,19,58,7.30
2014,01,14,19,59,7.30
2014,01,14,20,00,7.30
2014,01,14,20,01,7.30
2014,01,14,20,03,7.30
2014,01,14,20,04,7.30
2014,01,14,20,05,7.30
2014,01,14,20,06,7.30
2014,01,14,20,07,7.30
2014,01,14,20,08,7.30
2014,01,14,20,09,7.30
2014,01,14,20,10,7.30
2014,01,14,20,11,7.20
2014,01,14,20,13,7.20
2014,01,14,20,14,7.20
2014,01,14,20,15,7.20
2014,01,14,20,16,7.20
2014,01,14,20,17,7.20
2014,01,14,20,18,7.20
2014,01,14,20,19,7.20
2014,01,14,20,20,7.30
2014,01,14,20,21,7.20
2014,01,14,20,22,7.20
2014,01,14,20,24,7.30
2014,01,14,20,25,7.20
2014,01,14,20,26,7.20
2014,01,14,20,27,7.30
2014,01,14,20,28,7.30
2014,01,14,20,30,7.20
2014,01,14,20,31,7.30
2014,01,14,20,32,7.30
2014,01,14,20,33,7.30
2014,01,14,20,34,7.30
2014,01,14,20,35,7.30
2014,01,14,20,36,7.30
2014,01,14,20,37,7.30
2014,01,14,20,38,7.30
2014,01,14,20,39,7.30
2014,01,14,20,40,7.30
2014,01,14,20,41,7.30
2014,01,14,20,42,7.30
2014,01,14,20,43,7.30
2014,01,14,20,44,7.30
2014,01,14,20,46,7.30
2014,01,14,20,47,7.30
2014,01,14,20,48,7.30
2014,01,14,20,49,7.30
2014,01,14,20,50,7.30
2014,01,14,20,51,7.30
2014,01,14,20,52,7.30
2014,01,14,20,53,7.30
2014,01,14,20,54,7.30
2014,01,14,20,55,7.30
2014,01,14,20,56,7.30
2014,01,14,20,57,7.30
2014,01,14,20,58,7.30
2014,01,14,20,59,7.30
2014,01,14,21,00,7.30
2014,01,14,21,01,7.30
2014,01,14,21,03,7.30
2014,01,14,21,04,7.30
2014,01,14,21,05,7.30
2014,01,14,21,06,7.30
2014,01,14,21,07,7.30
2014,01,14,21,08,7.20
2014,01,14,21,09,7.20
2014,01,14,21,10,7.20
2014,01,14,21,11,7.20
2014,01,14,21,12,7.20
2014,01,14,21,13,7.20
2014,01,14,21,15,7.20
2014,01,14,21,17,7.20
2014,01,14,21,18,7.20
2014,01,14,21,19,7.20
2014,01,14,21,20,7.20
2014,01,14,21,21,7.20
2014,01,14,21,22,7.20
2014,01,14,21,23,7.20
2014,01,14,21,24,7.20
2014,01,14,21,25,7.20
2014,01,14,21,26,7.20
2014,01,14,21,27,7.20
2014,01,14,21,28,7.20
2014,01,14,21,29,7.20
2014,01,14,21,30,7.20
2014,01,14,21,31,7.20
2014,01,14,21,32,7.20
2014,01,14,21,33,7.20
2014,01,14,21,34,7.20
2014,01,14,21,35,7.20
2014,01,14,21,36,7.20
2014,01,14,21,37,7.20
2014,01,14,21,38,7.20
2014,01,14,21,39,7.20
2014,01,14,21,40,7.20
2014,01,14,21,41,7.20
2014,01,14,21,42,7.20
2014,01,14,21,43,7.20
2014,01,14,21,44,7.20